Time,TemperatureF,DewpointF,PressureIn,WindDirection,WindDirectionDegrees,WindSpeedMPH,WindSpeedGustMPH,Humidity,HourlyPrecipIn,Conditions,Clouds,dailyrainin,SolarRadiationWatts/m^2,SoftwareType,DateUTC
2013-09-04 00:02:00,55.0,55.0,-100.00,West,272,12.0,25.0,99,0.00,,,0.00,0.000000,,2013-09-04 07:02:00,
2013-09-04 00:22:00,55.0,55.0,-100.00,West,272,12.0,25.0,99,0.00,,,0.00,0.000000,,2013-09-04 07:22:00,
2013-09-04 00:32:00,55.0,55.0,-100.00,West,272,12.0,25.0,99,0.00,,,0.00,0.000000,,2013-09-04 07:32:00,
2013-09-04 00:42:00,55.0,55.0,-100.00,West,272,12.0,25.0,99,0.00,,,0.00,0.000000,,2013-09-04 07:42:00,
2013-09-04 00:52:00,55.0,55.0,-100.00,West,272,12.0,25.0,99,0.00,,,0.00,0.000000,,2013-09-04 07:52:00,
2013-09-04 01:22:00,55.0,55.0,-100.00,West,268,11.0,21.0,99,0.00,,,0.00,0.000000,,2013-09-04 08:22:00,
2013-09-04 01:32:00,55.0,55.0,-100.00,West,268,11.0,21.0,99,0.00,,,0.00,0.000000,,2013-09-04 08:32:00,
2013-09-04 01:43:00,55.0,55.0,-100.00,West,268,11.0,21.0,99,0.00,,,0.00,0.000000,,2013-09-04 08:43:00,
2013-09-04 01:52:00,55.0,55.0,-100.00,West,268,11.0,21.0,99,0.00,,,0.00,0.000000,,2013-09-04 08:52:00,
2013-09-04 02:01:00,55.0,55.0,-100.00,West,268,11.0,21.0,99,0.00,,,0.00,0.000000,,2013-09-04 09:01:00,
2013-09-04 02:02:00,55.0,55.0,-100.00,West,270,10.0,23.0,99,0.00,,,0.00,0.000000,,2013-09-04 09:02:00,
2013-09-04 02:22:00,55.0,55.0,-100.00,West,270,10.0,23.0,99,0.00,,,0.00,0.000000,,2013-09-04 09:22:00,
2013-09-04 02:33:00,55.0,55.0,-100.00,West,270,10.0,23.0,99,0.00,,,0.00,0.000000,,2013-09-04 09:33:00,
2013-09-04 02:43:00,55.0,55.0,-100.00,West,270,10.0,23.0,99,0.00,,,0.00,0.000000,,2013-09-04 09:43:00,
2013-09-04 02:53:00,55.0,55.0,-100.00,West,270,10.0,23.0,99,0.00,,,0.00,0.000000,,2013-09-04 09:53:00,
2013-09-04 03:02:00,55.0,55.0,-100.00,West,277,0.0,20.0,99,0.00,,,0.00,0.000000,,2013-09-04 10:02:00,
2013-09-04 03:23:00,55.0,55.0,-100.00,West,277,0.0,20.0,99,0.00,,,0.00,0.000000,,2013-09-04 10:23:00,
2013-09-04 03:33:00,55.0,55.0,-100.00,West,277,0.0,20.0,99,0.00,,,0.00,0.000000,,2013-09-04 10:33:00,
2013-09-04 03:42:00,55.0,55.0,-100.00,West,277,0.0,20.0,99,0.00,,,0.00,0.000000,,2013-09-04 10:42:00,
2013-09-04 03:52:00,55.0,55.0,-100.00,West,277,0.0,20.0,99,0.00,,,0.00,0.000000,,2013-09-04 10:52:00,
2013-09-04 04:22:00,54.0,54.0,-100.00,West,277,0.0,0.0,99,0.00,,,0.00,0.000000,,2013-09-04 11:22:00,
2013-09-04 04:33:00,54.0,54.0,-100.00,West,277,0.0,0.0,99,0.00,,,0.00,0.000000,,2013-09-04 11:33:00,
2013-09-04 04:42:00,54.0,54.0,-100.00,West,277,0.0,0.0,99,0.00,,,0.00,0.000000,,2013-09-04 11:42:00,
2013-09-04 04:52:00,54.0,54.0,-100.00,West,277,0.0,0.0,99,0.00,,,0.00,0.000000,,2013-09-04 11:52:00,
2013-09-04 05:01:00,54.0,54.0,-100.00,West,277,0.0,0.0,99,0.00,,,0.00,0.000000,,2013-09-04 12:01:00,
2013-09-04 05:21:00,54.0,54.0,-100.00,West,276,0.0,0.0,99,0.00,,,0.00,0.000000,,2013-09-04 12:21:00,
2013-09-04 05:32:00,54.0,54.0,-100.00,West,276,0.0,0.0,99,0.00,,,0.00,0.000000,,2013-09-04 12:32:00,
2013-09-04 05:42:00,54.0,54.0,-100.00,West,276,0.0,0.0,99,0.00,,,0.00,0.000000,,2013-09-04 12:42:00,
2013-09-04 05:52:00,54.0,54.0,-100.00,West,276,0.0,0.0,99,0.00,,,0.00,0.000000,,2013-09-04 12:52:00,
2013-09-04 06:01:00,54.0,54.0,-100.00,West,276,0.0,0.0,99,0.00,,,0.00,0.000000,,2013-09-04 13:01:00,
2013-09-04 06:42:00,56.0,53.0,-100.00,WNW,282,0.0,0.0,90,0.00,,,0.00,0.000000,,2013-09-04 13:42:00,
2013-09-04 06:52:00,56.0,53.0,-100.00,WNW,282,0.0,0.0,90,0.00,,,0.00,0.000000,,2013-09-04 13:52:00,
2013-09-04 07:01:00,56.0,53.0,-100.00,WNW,282,0.0,0.0,90,0.00,,,0.00,0.000000,,2013-09-04 14:01:00,
2013-09-04 07:21:00,58.0,49.0,-100.00,West,272,0.0,0.0,73,0.01,,,0.01,6.000000,,2013-09-04 14:21:00,
2013-09-04 07:32:00,58.0,49.0,-100.00,West,272,0.0,0.0,73,0.01,,,0.01,6.000000,,2013-09-04 14:32:00,
2013-09-04 07:42:00,58.0,49.0,-100.00,West,272,0.0,0.0,73,0.01,,,0.01,6.000000,,2013-09-04 14:42:00,
2013-09-04 07:52:00,58.0,49.0,-100.00,West,272,0.0,0.0,73,0.01,,,0.01,6.000000,,2013-09-04 14:52:00,
2013-09-04 08:01:00,58.0,49.0,-100.00,West,272,0.0,0.0,73,0.01,,,0.01,6.000000,,2013-09-04 15:01:00,
2013-09-04 08:02:00,58.0,52.0,-100.00,West,268,0.0,0.0,81,0.00,,,0.01,131.000000,,2013-09-04 15:02:00,
2013-09-04 08:43:00,58.0,52.0,-100.00,West,268,0.0,0.0,81,0.00,,,0.01,131.000000,,2013-09-04 15:43:00,
2013-09-04 08:53:00,58.0,52.0,-100.00,West,268,0.0,0.0,81,0.00,,,0.01,131.000000,,2013-09-04 15:53:00,
2013-09-04 09:02:00,61.0,52.0,-100.00,WNW,282,12.0,18.0,72,0.00,,,-99.99,320.000000,,2013-09-04 16:02:00,
2013-09-04 09:43:00,61.0,52.0,-100.00,WNW,282,12.0,18.0,72,0.00,,,-99.99,320.000000,,2013-09-04 16:43:00,
2013-09-04 09:53:00,61.0,52.0,-100.00,WNW,282,12.0,18.0,72,0.00,,,-99.99,320.000000,,2013-09-04 16:53:00,
2013-09-04 10:02:00,67.0,52.0,-100.00,West,277,8.0,19.0,59,0.00,,,0.01,515.000000,,2013-09-04 17:02:00,
2013-09-04 10:42:00,67.0,52.0,-100.00,West,277,8.0,19.0,59,0.00,,,0.01,515.000000,,2013-09-04 17:42:00,
2013-09-04 10:52:00,67.0,52.0,-100.00,West,277,8.0,19.0,59,0.00,,,0.01,515.000000,,2013-09-04 17:52:00,
2013-09-04 11:02:00,72.0,53.0,-100.00,West,263,6.0,12.0,51,0.00,,,0.01,681.000000,,2013-09-04 18:02:00,
2013-09-04 11:42:00,72.0,53.0,-100.00,West,263,6.0,12.0,51,0.00,,,0.01,681.000000,,2013-09-04 18:42:00,
2013-09-04 11:52:00,72.0,53.0,-100.00,West,263,6.0,12.0,51,0.00,,,0.01,681.000000,,2013-09-04 18:52:00,
2013-09-04 12:02:00,73.0,51.0,-100.00,WSW,255,9.0,14.0,46,0.00,,,0.01,807.000000,,2013-09-04 19:02:00,
2013-09-04 12:22:00,73.0,51.0,-100.00,WSW,255,9.0,14.0,46,0.00,,,0.01,807.000000,,2013-09-04 19:22:00,
2013-09-04 12:32:00,73.0,51.0,-100.00,WSW,255,9.0,14.0,46,0.00,,,0.01,807.000000,,2013-09-04 19:32:00,
2013-09-04 12:42:00,73.0,51.0,-100.00,WSW,255,9.0,14.0,46,0.00,,,0.01,807.000000,,2013-09-04 19:42:00,
2013-09-04 12:52:00,73.0,51.0,-100.00,WSW,255,9.0,14.0,46,0.00,,,0.01,807.000000,,2013-09-04 19:52:00,
2013-09-04 13:43:00,75.0,52.0,-100.00,West,262,8.0,15.0,44,0.00,,,0.01,873.000000,,2013-09-04 20:43:00,
2013-09-04 13:53:00,75.0,52.0,-100.00,West,262,8.0,15.0,44,0.00,,,0.01,873.000000,,2013-09-04 20:53:00,
2013-09-04 14:01:00,75.0,52.0,-100.00,West,262,8.0,15.0,44,0.00,,,0.01,873.000000,,2013-09-04 21:01:00,
2013-09-04 14:02:00,76.0,54.0,-100.00,West,277,10.0,19.0,47,0.00,,,0.01,885.000000,,2013-09-04 21:02:00,
2013-09-04 14:44:00,76.0,54.0,-100.00,West,277,10.0,19.0,47,0.00,,,0.01,885.000000,,2013-09-04 21:44:00,
2013-09-04 14:54:00,76.0,54.0,-100.00,West,277,10.0,19.0,47,0.00,,,0.01,885.000000,,2013-09-04 21:54:00,
2013-09-04 15:02:00,76.0,51.0,-100.00,West,269,9.0,20.0,42,0.00,,,0.01,835.000000,,2013-09-04 22:02:00,
2013-09-04 15:23:00,76.0,51.0,-100.00,West,269,9.0,20.0,42,0.00,,,0.01,835.000000,,2013-09-04 22:23:00,
2013-09-04 15:33:00,76.0,51.0,-100.00,West,269,9.0,20.0,42,0.00,,,0.01,835.000000,,2013-09-04 22:33:00,
2013-09-04 15:43:00,76.0,51.0,-100.00,West,269,9.0,20.0,42,0.00,,,0.01,835.000000,,2013-09-04 22:43:00,
2013-09-04 15:54:00,76.0,51.0,-100.00,West,269,9.0,20.0,42,0.00,,,0.01,835.000000,,2013-09-04 22:54:00,
2013-09-04 16:22:00,76.0,50.0,-100.00,WSW,256,11.0,20.0,40,0.00,,,0.01,725.000000,,2013-09-04 23:22:00,
2013-09-04 16:34:00,76.0,50.0,-100.00,WSW,256,11.0,20.0,40,0.00,,,0.01,725.000000,,2013-09-04 23:34:00,
2013-09-04 16:42:00,76.0,50.0,-100.00,WSW,256,11.0,20.0,40,0.00,,,0.01,725.000000,,2013-09-04 23:42:00,
2013-09-04 16:52:00,76.0,50.0,-100.00,WSW,256,11.0,20.0,40,0.00,,,0.01,725.000000,,2013-09-04 23:52:00,
2013-09-04 17:01:00,76.0,50.0,-100.00,WSW,256,11.0,20.0,40,0.00,,,0.01,725.000000,,2013-09-05 00:01:00,
2013-09-04 17:22:00,74.0,51.0,-100.00,WSW,258,12.0,23.0,44,0.00,,,0.01,576.000000,,2013-09-05 00:22:00,
2013-09-04 17:32:00,74.0,51.0,-100.00,WSW,258,12.0,23.0,44,0.00,,,0.01,576.000000,,2013-09-05 00:32:00,
2013-09-04 17:43:00,74.0,51.0,-100.00,WSW,258,12.0,23.0,44,0.00,,,0.01,576.000000,,2013-09-05 00:43:00,
2013-09-04 17:52:00,74.0,51.0,-100.00,WSW,258,12.0,23.0,44,0.00,,,0.01,576.000000,,2013-09-05 00:52:00,
2013-09-04 18:01:00,74.0,51.0,-100.00,WSW,258,12.0,23.0,44,0.00,,,0.01,576.000000,,2013-09-05 01:01:00,
2013-09-04 18:02:00,70.0,51.0,-100.00,WSW,257,12.0,24.0,51,0.00,,,0.01,386.000000,,2013-09-05 01:02:00,
2013-09-04 18:42:00,70.0,51.0,-100.00,WSW,257,12.0,24.0,51,0.00,,,0.01,386.000000,,2013-09-05 01:42:00,
2013-09-04 18:52:00,70.0,51.0,-100.00,WSW,257,12.0,24.0,51,0.00,,,0.01,386.000000,,2013-09-05 01:52:00,
2013-09-04 19:02:00,65.0,53.0,-100.00,WSW,253,10.0,22.0,65,0.00,,,0.01,181.000000,,2013-09-05 02:02:00,
2013-09-04 19:22:00,65.0,53.0,-100.00,WSW,253,10.0,22.0,65,0.00,,,0.01,181.000000,,2013-09-05 02:22:00,
2013-09-04 19:32:00,65.0,53.0,-100.00,WSW,253,10.0,22.0,65,0.00,,,0.01,181.000000,,2013-09-05 02:32:00,
2013-09-04 19:42:00,65.0,53.0,-100.00,WSW,253,10.0,22.0,65,0.00,,,0.01,181.000000,,2013-09-05 02:42:00,
2013-09-04 19:52:00,65.0,53.0,-100.00,WSW,253,10.0,22.0,65,0.00,,,0.01,181.000000,,2013-09-05 02:52:00,
2013-09-04 20:02:00,58.0,55.0,-100.00,West,262,14.0,23.0,91,0.00,,,0.01,16.000000,,2013-09-05 03:02:00,
2013-09-04 20:22:00,58.0,55.0,-100.00,West,262,14.0,23.0,91,0.00,,,0.01,16.000000,,2013-09-05 03:22:00,
2013-09-04 20:34:00,58.0,55.0,-100.00,West,262,14.0,23.0,91,0.00,,,0.01,16.000000,,2013-09-05 03:34:00,
2013-09-04 20:45:00,58.0,55.0,-100.00,West,262,14.0,23.0,91,0.00,,,0.01,16.000000,,2013-09-05 03:45:00,
2013-09-04 20:54:00,58.0,55.0,-100.00,West,262,14.0,23.0,91,0.00,,,0.01,16.000000,,2013-09-05 03:54:00,
2013-09-04 21:02:00,56.0,55.0,-100.00,West,265,15.0,28.0,98,0.00,,,0.01,0.000000,,2013-09-05 04:02:00,
2013-09-04 21:44:00,56.0,55.0,-100.00,West,265,15.0,28.0,98,0.00,,,0.01,0.000000,,2013-09-05 04:44:00,
2013-09-04 21:53:00,56.0,55.0,-100.00,West,265,15.0,28.0,98,0.00,,,0.01,0.000000,,2013-09-05 04:53:00,
2013-09-04 22:23:00,55.0,55.0,-100.00,West,270,11.0,24.0,99,0.00,,,0.01,0.000000,,2013-09-05 05:23:00,
2013-09-04 22:34:00,55.0,55.0,-100.00,West,270,11.0,24.0,99,0.00,,,0.01,0.000000,,2013-09-05 05:34:00,
2013-09-04 22:43:00,55.0,55.0,-100.00,West,270,11.0,24.0,99,0.00,,,0.01,0.000000,,2013-09-05 05:43:00,
2013-09-04 22:52:00,55.0,55.0,-100.00,West,270,11.0,24.0,99,0.00,,,0.01,0.000000,,2013-09-05 05:52:00,
2013-09-04 23:01:00,55.0,55.0,-100.00,West,270,11.0,24.0,99,0.00,,,0.01,0.000000,,2013-09-05 06:01:00,
2013-09-04 23:42:00,55.0,55.0,-100.00,West,268,15.0,30.0,99,0.00,,,0.01,0.000000,,2013-09-05 06:42:00,
2013-09-04 23:52:00,55.0,55.0,-100.00,West,268,15.0,30.0,99,0.00,,,0.01,0.000000,,2013-09-05 06:52:00,